Location: Stuttgart
(48.8069°N, 9.1544°E)
Time: 08:20:54
(UTC+01:00)

ISS - Pass Details

Date: 11 November 2017
Orbit: 402 x 407 km, 51.6° (Epoch: 22 November)

Event Time Altitude Azimuth Distance (km) Brightness Sun altitude
Reaches altitude 10° 06:42:31 10° 289° (WNW) 1,458 -1.7 -7.5°
Exits shadow 06:42:31 10° 289° (WNW) 1,458 -1.7 -7.5°
Maximum altitude 06:45:46 70° 205° (SSW) 431 -3.7 -7.0°
Drops below altitude 10° 06:49:01 10° 121° (ESE) 1,453 0.6 -6.5°
Sets 06:51:05 0° 119° (ESE) 2,310 2.3 -6.1°
